Tracking 19572 objects as of 24-Feb-2019
HD Live streaming from Space Station
objects crossing your sky now

COSMOS 2303

Track COSMOS 2303 now!
10-day predictions
COSMOS 2303 is classified as:


NORAD ID: 23445
Int'l Code: 1994-086E
Perigee: 1,419.0 km
Apogee: 1,437.2 km
Inclination: 82.6 °
Period: 114.2 minutes
Semi major axis: 7799 km
RCS: 1.1077 m2 (large)
Launch date: December 26, 1994
Source: Commonwealth of Independent States (former USSR) (CIS)
Launch site: PLESETSK MISSILE AND SPACE COMPLEX (PKMTR)
aabbcc
Your satellite tracking list
Your tracking list is empty




NASA's NSSDC Master Catalog

Two Line Element Set (TLE):
1 23445U 94086E   19053.67632814 -.00000003 +00000-0 -78564-4 0  9999
2 23445 082.5708 245.8100 0011673 119.5848 289.7187 12.60488689111405
Source of the keplerian elements: AFSPC